Time,TemperatureF,DewpointF,PressureIn,WindDirection,WindDirectionDegrees,WindSpeedMPH,WindSpeedGustMPH,Humidity,HourlyPrecipIn,Conditions,Clouds,dailyrainin,SoftwareType,DateUTC
2013-04-11 00:02:00,55.0,33.0,-100.00,West,267,5.0,19.0,43,-99.99,,,-99.99,,2013-04-11 07:02:00,
2013-04-11 00:12:00,55.0,33.0,-100.00,WSW,241,3.0,11.0,44,-99.99,,,-99.99,,2013-04-11 07:12:00,
2013-04-11 00:22:00,55.0,33.0,-100.00,SW,227,4.0,13.0,44,-99.99,,,-99.99,,2013-04-11 07:22:00,
2013-04-11 00:32:00,54.0,33.0,-100.00,SW,233,4.0,17.0,45,-99.99,,,-99.99,,2013-04-11 07:32:00,
2013-04-11 00:42:00,54.0,33.0,-100.00,SW,233,4.0,17.0,45,-99.99,,,-99.99,,2013-04-11 07:42:00,
2013-04-11 00:52:00,54.0,33.0,-100.00,SW,233,4.0,17.0,45,-99.99,,,-99.99,,2013-04-11 07:52:00,
2013-04-11 03:12:00,52.0,35.0,-100.00,NNW,339,1.0,8.0,52,-99.99,,,-99.99,,2013-04-11 10:12:00,
2013-04-11 03:22:00,52.0,35.0,-100.00,NNW,339,1.0,8.0,52,-99.99,,,-99.99,,2013-04-11 10:22:00,
2013-04-11 03:32:00,52.0,35.0,-100.00,NNW,339,1.0,8.0,52,-99.99,,,-99.99,,2013-04-11 10:32:00,
2013-04-11 03:41:00,52.0,35.0,-100.00,NNW,339,1.0,8.0,52,-99.99,,,-99.99,,2013-04-11 10:41:00,
2013-04-11 04:41:00,46.0,38.0,-100.00,East,88,4.0,14.0,74,-99.99,,,-99.99,,2013-04-11 11:41:00,
2013-04-11 05:02:00,47.0,39.0,-100.00,SSE,162,2.0,10.0,74,-99.99,,,-99.99,,2013-04-11 12:02:00,
2013-04-11 05:12:00,46.0,38.0,-100.00,East,88,4.0,14.0,74,-99.99,,,-99.99,,2013-04-11 12:12:00,
2013-04-11 05:22:00,46.0,38.0,-100.00,East,88,4.0,14.0,74,-99.99,,,-99.99,,2013-04-11 12:22:00,
2013-04-11 05:32:00,46.0,38.0,-100.00,East,88,4.0,14.0,74,-99.99,,,-99.99,,2013-04-11 12:32:00,
2013-04-11 07:52:00,42.0,38.0,-100.00,NE,35,3.0,9.0,84,-99.99,,,-99.99,,2013-04-11 14:52:00,
2013-04-11 08:02:00,42.0,38.0,-100.00,NE,35,3.0,9.0,84,-99.99,,,-99.99,,2013-04-11 15:02:00,
2013-04-11 08:12:00,42.0,38.0,-100.00,NE,35,3.0,9.0,84,-99.99,,,-99.99,,2013-04-11 15:12:00,
2013-04-11 08:22:00,42.0,38.0,-100.00,NE,35,3.0,9.0,84,-99.99,,,-99.99,,2013-04-11 15:22:00,
2013-04-11 14:54:00,57.0,36.0,-100.00,East,96,4.0,11.0,46,-99.99,,,-99.99,,2013-04-11 21:54:00,
2013-04-11 15:03:00,57.0,36.0,-100.00,East,96,4.0,11.0,46,-99.99,,,-99.99,,2013-04-11 22:03:00,
2013-04-11 15:13:00,57.0,36.0,-100.00,East,96,4.0,11.0,46,-99.99,,,-99.99,,2013-04-11 22:13:00,
2013-04-11 15:22:00,57.0,36.0,-100.00,East,96,4.0,11.0,46,-99.99,,,-99.99,,2013-04-11 22:22:00,
2013-04-11 16:31:00,59.0,31.0,-100.00,NE,51,2.0,11.0,35,-99.99,,,-99.99,,2013-04-11 23:31:00,
2013-04-11 16:53:00,58.0,32.0,-100.00,ENE,64,3.0,8.0,37,-99.99,,,-99.99,,2013-04-11 23:53:00,
2013-04-11 17:02:00,59.0,31.0,-100.00,NE,51,2.0,11.0,35,-99.99,,,-99.99,,2013-04-12 00:02:00,
2013-04-11 17:12:00,59.0,31.0,-100.00,NE,51,2.0,11.0,35,-99.99,,,-99.99,,2013-04-12 00:12:00,
2013-04-11 17:22:00,59.0,31.0,-100.00,NE,51,2.0,11.0,35,-99.99,,,-99.99,,2013-04-12 00:22:00,
2013-04-11 17:52:00,56.0,24.0,-100.00,North,0,2.0,11.0,29,-99.99,,,-99.99,,2013-04-12 00:52:00,
2013-04-11 18:02:00,57.0,27.0,-100.00,ESE,104,1.0,9.0,31,-99.99,,,-99.99,,2013-04-12 01:02:00,
2013-04-11 18:12:00,57.0,25.0,-100.00,North,3,3.0,6.0,29,-99.99,,,-99.99,,2013-04-12 01:12:00,
2013-04-11 18:22:00,56.0,24.0,-100.00,North,0,2.0,11.0,29,-99.99,,,-99.99,,2013-04-12 01:22:00,
2013-04-11 18:32:00,56.0,24.0,-100.00,North,0,2.0,11.0,29,-99.99,,,-99.99,,2013-04-12 01:32:00,
2013-04-11 18:42:00,56.0,24.0,-100.00,North,0,2.0,11.0,29,-99.99,,,-99.99,,2013-04-12 01:42:00,
2013-04-11 21:02:00,53.0,22.0,-100.00,NW,320,8.0,18.0,29,-99.99,,,-99.99,,2013-04-12 04:02:00,
2013-04-11 21:13:00,53.0,20.0,-100.00,NNW,333,5.0,14.0,27,-99.99,,,-99.99,,2013-04-12 04:13:00,
2013-04-11 21:22:00,53.0,20.0,-100.00,NW,320,7.0,19.0,27,-99.99,,,-99.99,,2013-04-12 04:22:00,
2013-04-11 21:33:00,53.0,22.0,-100.00,NW,320,8.0,18.0,29,-99.99,,,-99.99,,2013-04-12 04:33:00,